Date String (YYYY-MM-DD hh:mm:ss) UTC,Instrument flags,Ambient pressure (hPa),Sample flow (lpm),Bypass flow (lpm),Sample temperature (°C),Ambient temperature (°C),ASC tube jacket temperature (°C),LED temperature (°C),Box temperature (°C),Sample RH (%),Span deviation,Mass concentration (μg/m³),Mass concentration (μg/m³),Mass concentration (μg/m³)
DateTimeUTC,F1_M11,P_M11,Q1_M11,Q2_M11,T1_M11,T2_M11,T3_M11,T4_M11,T5_M11,U1_M11,ZSPAN_M11,X0_M11,X2_M11,X1_M11
2022-09-15 00:00:00,,0822.8,5.00,0.00,29.7,28.4,00.0,38.5,31.6,28.6,0000.0,0006.04,0003.35,0002.98
2022-09-15 00:01:00,,0822.8,4.99,0.00,29.8,28.5,00.0,38.5,31.6,28.6,0000.0,0006.18,0003.38,0003.01
2022-09-15 00:02:00,,0822.8,5.01,0.00,29.8,28.6,00.0,38.5,31.7,29.1,0000.0,0006.30,0003.41,0003.06
2022-09-15 00:03:00,,0822.7,5.00,0.00,29.8,28.6,00.0,38.5,31.7,28.7,0000.0,0006.30,0003.43,0003.10
2022-09-15 00:04:00,,0822.8,4.99,0.00,29.8,28.7,00.0,38.5,31.7,28.5,0000.0,0005.16,0003.44,0003.11
2022-09-15 00:05:00,,0822.8,5.00,0.00,29.9,28.7,00.0,38.5,31.8,28.7,0000.0,0004.97,0003.46,0003.13
2022-09-15 00:06:00,,0822.8,4.99,0.00,29.9,28.7,00.0,38.6,31.8,28.9,0000.0,0004.90,0003.46,0003.15
2022-09-15 00:07:00,,0822.8,5.01,0.00,29.9,28.8,00.0,38.6,31.8,29.1,0000.0,0004.87,0003.46,0003.18
2022-09-15 00:08:00,,0822.9,4.99,0.00,29.9,28.8,00.0,38.6,31.8,28.8,0000.0,0004.85,0003.48,0003.21
2022-09-15 00:09:00,,0822.8,4.98,0.00,30.0,28.8,00.0,38.6,31.9,28.2,0000.0,0005.00,0003.53,0003.24
2022-09-15 00:10:00,,0822.8,5.01,0.00,30.0,28.8,00.0,38.6,31.9,28.3,0000.0,0005.04,0003.56,0003.27
2022-09-15 00:11:00,,0822.8,4.99,0.00,30.0,28.9,00.0,38.7,31.9,28.8,0000.0,0005.06,0003.58,0003.30
2022-09-15 00:12:00,,0822.8,5.01,0.00,30.0,28.9,00.0,38.7,31.9,29.2,0000.0,0005.12,0003.60,0003.32
2022-09-15 00:13:00,,0822.8,4.99,0.00,30.1,28.9,00.0,38.7,32.0,29.3,0000.0,0005.14,0003.63,0003.35
2022-09-15 00:14:00,,0822.8,5.01,0.00,30.1,28.9,00.0,38.7,32.0,29.6,0000.0,0005.16,0003.65,0003.37
2022-09-15 00:15:00,,0822.9,5.00,0.00,30.1,28.3,00.0,38.7,32.0,29.6,0000.0,0005.27,0003.69,0003.41
2022-09-15 00:16:00,,0822.8,5.00,0.00,30.1,27.1,00.0,38.7,31.9,29.4,0000.0,0005.31,0003.71,0003.43
2022-09-15 00:17:00,,0822.8,5.01,0.00,30.0,26.8,00.0,38.7,31.8,29.0,0000.0,0005.43,0003.74,0003.45
2022-09-15 00:18:00,,0822.8,5.00,0.00,29.9,26.9,00.0,38.6,31.6,28.7,0000.0,0005.53,0003.78,0003.47
2022-09-15 00:19:00,,0822.8,5.00,0.00,29.9,27.2,00.0,38.6,31.5,29.3,0000.0,0005.59,0003.81,0003.48
2022-09-15 00:20:00,,0822.9,4.99,0.00,29.8,27.5,00.0,38.6,31.5,29.5,0000.0,0005.68,0003.85,0003.50
2022-09-15 00:21:00,,0822.9,4.98,0.00,29.8,27.7,00.0,38.6,31.5,29.7,0000.0,0005.88,0003.89,0003.52
2022-09-15 00:22:00,,0822.9,5.00,0.00,29.8,27.9,00.0,38.6,31.5,29.5,0000.0,0006.08,0003.93,0003.53
2022-09-15 00:23:00,,0823.0,5.00,0.00,29.8,28.1,00.0,38.5,31.6,29.4,0000.0,0006.26,0003.99,0003.56
2022-09-15 00:24:00,,0823.0,4.98,0.00,29.8,28.2,00.0,38.5,31.6,29.4,0000.0,0006.40,0004.02,0003.58
2022-09-15 00:25:00,,0823.0,5.00,0.00,29.8,28.3,00.0,38.6,31.6,29.8,0000.0,0006.47,0004.04,0003.59
2022-09-15 00:26:00,,0822.9,5.01,0.00,29.8,28.4,00.0,38.6,31.7,29.6,0000.0,0006.43,0004.04,0003.60
2022-09-15 00:27:00,,0822.9,5.00,0.00,29.8,28.5,00.0,38.6,31.7,29.8,0000.0,0006.42,0004.05,0003.61
2022-09-15 00:28:00,,0823.0,5.00,0.00,29.9,28.5,00.0,38.6,31.7,30.0,0000.0,0006.43,0004.05,0003.62
2022-09-15 00:29:00,,0822.9,4.99,0.00,29.9,28.6,00.0,38.6,31.7,30.0,0000.0,0006.50,0004.05,0003.63
2022-09-15 00:30:00,,0822.9,5.01,0.00,29.9,28.7,00.0,38.6,31.7,29.9,0000.0,0006.39,0004.03,0003.63
2022-09-15 00:31:00,,0823.0,4.99,0.00,29.9,28.7,00.0,38.6,31.8,29.7,0000.0,0006.32,0004.01,0003.63
2022-09-15 00:32:00,,0822.9,5.01,0.00,30.0,28.7,00.0,38.6,31.8,29.1,0000.0,0006.23,0004.00,0003.64
2022-09-15 00:33:00,,0823.0,4.99,0.00,30.0,28.8,00.0,38.7,31.9,28.2,0000.0,0006.22,0004.00,0003.64
2022-09-15 00:34:00,,0823.0,4.98,0.00,30.0,28.8,00.0,38.7,31.9,27.9,0000.0,0006.01,0003.96,0003.63
2022-09-15 00:35:00,,0823.0,5.00,0.00,30.0,28.8,00.0,38.7,31.9,27.3,0000.0,0005.73,0003.91,0003.61
2022-09-15 00:36:00,,0823.0,5.00,0.00,30.0,28.9,00.0,38.7,31.9,27.1,0000.0,0005.64,0003.89,0003.60
2022-09-15 00:37:00,,0823.0,5.00,0.00,30.1,28.9,00.0,38.7,32.0,27.3,0000.0,0005.72,0003.87,0003.57
2022-09-15 00:38:00,,0823.1,5.01,0.00,30.1,28.9,00.0,38.7,32.0,26.3,0000.0,0005.80,0003.85,0003.53
2022-09-15 00:39:00,,0823.1,4.99,0.00,30.1,29.0,00.0,38.8,32.0,26.6,0000.0,0005.68,0003.81,0003.48
2022-09-15 00:40:00,,0823.2,5.01,0.00,30.1,29.0,00.0,38.8,32.0,26.9,0000.0,0005.52,0003.78,0003.45
2022-09-15 00:41:00,,0823.3,4.99,0.00,30.2,28.7,00.0,38.8,32.0,27.6,0000.0,0005.48,0003.76,0003.43
2022-09-15 00:42:00,,0823.3,5.00,0.00,30.2,27.4,00.0,38.8,32.0,28.6,0000.0,0005.44,0003.73,0003.41
2022-09-15 00:43:00,,0823.2,4.99,0.00,30.1,26.9,00.0,38.7,31.9,30.0,0000.0,0006.39,0003.69,0003.37
2022-09-15 00:44:00,,0823.3,5.00,0.00,30.0,27.0,00.0,38.7,31.7,30.1,0000.0,0006.13,0003.61,0003.31
2022-09-15 00:45:00,,0823.3,5.00,0.00,30.0,27.3,00.0,38.7,31.6,30.4,0000.0,0005.93,0003.53,0003.23
2022-09-15 00:46:00,,0823.2,5.00,0.00,29.9,27.6,00.0,38.7,31.6,30.7,0000.0,0005.84,0003.46,0003.15
2022-09-15 00:47:00,,0823.2,5.00,0.00,29.9,27.8,00.0,38.7,31.7,30.3,0000.0,0005.67,0003.38,0003.03
2022-09-15 00:48:00,,0823.2,5.00,0.00,29.9,28.0,00.0,38.7,31.7,29.9,0000.0,0005.48,0003.29,0002.88
2022-09-15 00:49:00,,0823.2,4.98,0.00,29.9,28.2,00.0,38.7,31.7,30.2,0000.0,0005.23,0003.21,0002.79
2022-09-15 00:50:00,,0823.2,5.01,0.00,29.9,28.3,00.0,38.7,31.7,29.2,0000.0,0005.44,0003.20,0002.72
2022-09-15 00:51:00,,0823.2,5.00,0.00,29.9,28.4,00.0,38.7,31.8,27.9,0000.0,0005.65,0003.17,0002.63
2022-09-15 00:52:00,,0823.2,5.00,0.00,29.9,28.5,00.0,38.7,31.8,28.2,0000.0,0005.75,0003.15,0002.53
2022-09-15 00:53:00,,0823.2,5.00,0.00,30.0,28.6,00.0,38.7,31.8,28.1,0000.0,0005.71,0003.10,0002.42
2022-09-15 00:54:00,,0823.1,4.99,0.00,30.0,28.7,00.0,38.7,31.9,29.2,0000.0,0004.60,0003.01,0002.35
2022-09-15 00:55:00,,0823.2,5.01,0.00,30.0,28.7,00.0,38.7,31.9,29.0,0000.0,0004.67,0003.01,0002.33
2022-09-15 00:56:00,,0823.2,4.99,0.00,30.0,28.8,00.0,38.7,31.9,28.3,0000.0,0004.83,0003.03,0002.32
2022-09-15 00:57:00,,0823.1,5.01,0.00,30.0,28.8,00.0,38.7,31.9,27.5,0000.0,0004.77,0003.02,0002.31
2022-09-15 00:58:00,,0823.1,4.98,0.00,30.1,28.8,00.0,38.7,31.9,28.0,0000.0,0004.84,0003.01,0002.30
2022-09-15 00:59:00,,0823.1,5.01,0.00,30.1,28.8,00.0,38.8,32.0,28.7,0000.0,0004.90,0003.02,0002.31
